Regional Weather Roundup
Issued by NWS Albany, NY

Home | Current Version | Previous Version | Text Only | Print | Product List | Glossary On
Versions: 1 2 3 4 5 6 7 8 9 10 11 12 13 14 15 16 17 18 19 20 21 22 23 24 25 26 27 28 29 30 31 32 33 34 35 36 37 38 39 40 41 42 43 44 45 46 47 48 49 50
000
ASUS41 KALY 012010
RWRALY

NEW YORK STATE HOURLY WEATHER ROUNDUP
NATIONAL WEATHER SERVICE ALBANY NY
400 PM EDT WED JUL 01 2015

NOTE: "FAIR" INDICATES FEW OR NO CLOUDS BELOW 12,000 FEET WITH NO
SIGNIFICANT WEATHER AND/OR NO OBSTRUCTIONS TO VISIBILITY.

NYZ032-033-038>043-046>054-057>066-NYZ062>081-012100-
EAST


CITY           SKY/WX    TMP DP  RH WIND       PRES   REMARKS
ALBANY         LGT RAIN  76  60  57 W20G28    29.71R
GLENS FALLS    LGT RAIN  71  62  73 SW8       29.69R
POUGHKEEPSIE   MOSUNNY   81  59  47 SW12G24   29.72F
NEWBURGH       MOSUNNY   79  63  57 W14G28    29.75F
WHITE PLAINS   MOSUNNY   81  60  48 W13G21    29.75F
ISLIP          MOSUNNY   80  66  62 SW13      29.75F
NEW YORK CITY  MOSUNNY   83  60  45 SW8G21    29.74F
CENTRAL PARK   MOSUNNY   81  61  50 SW8       29.78F
$$

NYZ005>009-017-018-044>046-055-056-012100-
CENTRAL


CITY           SKY/WX    TMP DP  RH WIND       PRES   REMARKS
FULTON         CLOUDY    68  58  70 W18G30    29.76R
SYRACUSE       CLOUDY    70  63  78 W16G22    29.75S
ROME           CLOUDY    67  63  87 W13       29.75S
ELMIRA         MOSUNNY   76  59  55 W18G28    29.79R
BINGHAMTON     PTSUNNY   69  63  81 W20       29.79S
MONTICELLO     PTSUNNY   72  59  64 SW13G18   29.80S
$$

NYZ026>034-041>043-012100-
NORTH


CITY           SKY/WX    TMP DP  RH WIND       PRES   REMARKS
WATERTOWN      CLOUDY    64  59  83 SW14G22   29.70R
FORT DRUM      NOT AVBL
MASSENA        CLOUDY    70  61  73 SW18G25   29.61S
SARANAC LAKE   CLOUDY    65  59  81 SW9       29.67S
PLATTSBURGH    MOSUNNY   75  61  61 SW9G20    29.61F
$$

NYZ001>004-010>016-019>021-012100-
WEST


CITY           SKY/WX    TMP DP  RH WIND       PRES   REMARKS
NIAGARA FALLS  PTSUNNY   69  61  75 SW13      29.81R
BUFFALO        LGT RAIN  66  59  78 W21G30    29.83S
DUNKIRK        MOSUNNY   68  60  75 SW15G24   29.87S
JAMESTOWN      MOSUNNY   66  55  68 W14G20    29.90F
WELLSVILLE     PTSUNNY   68  56  65 W15G23    29.89R
ROCHESTER      PTSUNNY   74  57  55 W18G25    29.79S
PENN YAN       PTSUNNY   72  58  61 W14G22    29.81R
$$

             KEY
       WCI = WIND CHILL INDEX
       VSB = VISIBILITY
       HX  = HEAT INDEX
$$



USA.gov is the U.S. government's official web portal to all federal, state and local government web resources and services.